Regional Weather Roundup
Issued by NWS

Home | Current Version | Previous Version | Text Only | Print | Product List | Glossary On
Versions: 1 2 3 4 5 6 7 8 9 10 11 12 13 14 15 16 17 18 19 20 21 22 23 24 25 26 27 28 29 30 31 32 33 34 35 36 37 38 39 40 41 42 43 44 45 46 47 48 49 50
000
ASUS43 KDTX 031910
RWRMI
MICHIGAN HOURLY REGIONAL WEATHER ROUNDUP
NATIONAL WEATHER SERVICE DETROIT/PONTIAC MI
300 PM EDT SUN MAY 03 2015

NOTE: "FAIR" INDICATES FEW OR NO CLOUDS BELOW 12,000 FEET WITH NO
SIGNIFICANT WEATHER AND/OR OBSTRUCTION TO VISIBILITY.

MIZ047>049-052>055-059>063-066>070-074>076-081>083-032000-
SOUTHEAST LOWER MICHIGAN

CITY           SKY/WX    TMP DP  RH WIND       PRES   REMARKS
ADRIAN         SUNNY     77  40  26 SW15G25   30.04F
ALMA           PTSUNNY   79  40  25 SW14G20   29.97S
ANN ARBOR      SUNNY     78  43  28 SW13G22   30.03F
BAD AXE        MOSUNNY   76  37  24 SW15G23   29.98F
CARO           MOSUNNY   79  43  28 SW5       29.98S
DETROIT CITY   SUNNY     76  45  33 S15G25    30.02F
DETROIT        MOSUNNY   81  41  24 S20G26    30.03F
FLINT          MOSUNNY   78  42  27 SW10G21   29.99F
GROSSE ILE     SUNNY     70  48  46 SE12      30.02F
HILLSDALE      MOSUNNY   78  41  27 W14       30.03F
HOWELL         MOSUNNY   78  39  25 SW12G17   30.01S

CITY           SKY/WX    TMP DP  RH WIND       PRES   REMARKS
JACKSON        MOSUNNY   78  44  29 SW18      30.01F
LAMBERTVILLE   SUNNY     79  39  24 W9G17     30.04F
LANSING        PTSUNNY   78  43  28 SW13G26   30.00F
LAPEER         FAIR      77  36  22 W13G21    30.00F
MASON          CLOUDY    75  40  28 SW7G16    30.00F
MONROE         SUNNY     77  45  31 SW9G18    30.02S
MT. CLEMENS    MOSUNNY   75  47  38 S16       30.00F
PONTIAC        MOSUNNY   77  40  26 SW15G22   30.01F
PORT HOPE        N/A     79  40  24 SW14G23   29.96S
PORT HURON     SUNNY     77  43  29 S16G22    30.02S
TRI CITIES     PTSUNNY   80  41  24 SW15G28   29.97S
MIDLAND        CLOUDY    78  39  24 SW16G22   29.95S
TROY           MOSUNNY   79  39  24 SW10G20   30.04S
SAGINAW HB     MOSUNNY   79  37  22 S15G25    29.97F
$$
MIZ043>046-050>051-056>058-064>065-071>073-077>080-032000-
SOUTHWEST LOWER MICHIGAN

CITY           SKY/WX    TMP DP  RH WIND       PRES   REMARKS
BATTLE CREEK   SUNNY     78  45  30 S16G28    30.01F
BENTON HARBOR  CLOUDY    72  47  40 W12       29.98F
BIG RAPIDS     PTSUNNY   76  41  28 W16G30    29.95S
COLDWATER      FAIR      76  42  30 W15G21    30.01F
FREMONT        FAIR      77  35  22 SW17G28   29.95F
HOLLAND        PTSUNNY   75  46  35 SW20G26   29.98F
GRAND RAPIDS   PTSUNNY   79  44  28 S15G25    29.97F
IONIA          FAIR      79  41  25 SW13G24   29.97F
KALAMAZOO      MOSUNNY   79  44  28 S13G25    29.99F
LUDINGTON      PTSUNNY   73  43  33 S16G22    29.93F
MARSHALL       MOSUNNY   76  45  32 MISG      30.00F
MOUNT PLEASANT PTSUNNY   80  42  26 S14G21    29.95F
MUSKEGON       PTSUNNY   74  43  32 S17G26    29.96F
SOUTH HAVEN    CLOUDY    74  40  29 SW9       29.98F
$$
MIZ016>042-032000-
NORTHERN LOWER MICHIGAN

CITY           SKY/WX    TMP DP  RH WIND       PRES   REMARKS
ALPENA         CLOUDY    79  41  25 SW12G28   29.90F
BEAVER ISLAND  MOSUNNY   71  40  32 SW15G26   29.89S
BELLAIRE       PTSUNNY   78  46  32 SW10G17   29.90F
CADILLAC       CLOUDY    75  45  34 SW22      29.94F
CHARLEVOIX     MOSUNNY   76  49  38 S12G20    29.92S
FRANKFORT      PTSUNNY   73  34  23 S14G25    29.91S
GAYLORD        PTSUNNY   74  46  36 SW10      29.92F
GRAYLING       PTSUNNY   76  44  32 SW13G21   29.94F
HARBOR SPRINGS MOSUNNY   67  47  49 SW5       29.90F
HOUGHTON LAKE  PTSUNNY   75  43  31 SW14G21   29.95F
MANISTEE       PTSUNNY   75  43  31 SW12G23   29.92F
OSCODA         CLOUDY    78  42  27 SW18G25   29.93S
PELLSTON       MOSUNNY   78  48  34 SW12G22   29.89F
ROGERS CITY    PTSUNNY   66  45  47 N9        29.91S
TRAVERSE CITY  PTSUNNY   78  44  29 SW12G24   29.90F
$$
MIZ007>008-015-032000-
EASTERN UPPER MICHIGAN

CITY           SKY/WX    TMP DP  RH WIND       PRES   REMARKS
KINROSS        MOSUNNY   73  48  40 SW15G25   29.88F
MACKINAC ISLAN MOSUNNY   70  47  43 W12G20    29.89F
NEWBERRY       PTSUNNY   70  49  47 SW20G29   29.87S
S. S. MARIE    PTSUNNY   74  47  38 SW17G25   29.87R
MUNISING         N/A     78  49  35 S14G21    29.78F
$$
MIZ004>006-011>014-085-032000-
CENTRAL UPPER MICHIGAN

CITY           SKY/WX    TMP DP  RH WIND       PRES   REMARKS
MANISTIQUE     SUNNY     50  39  64 S12G25    29.87F
ESCANABA       SUNNY     66  46  48 S12G18    29.81F
MENOMINEE      SUNNY     77  52  41 S16G23    29.81F
SAWYER-GWINN   CLOUDY    75  46  35 S12       29.79S
$$
MIZ001>003-009>011-084-032000-
WESTERN UPPER MICHIGAN

CITY           SKY/WX    TMP DP  RH WIND       PRES   REMARKS
IRON MOUNTAIN  SUNNY     81  50  33 SW18G24   29.77F
HOUGHTON       PTSUNNY   76  49  38 NW13G20   29.75R
COPPER HARBOR    N/A     69  52  54 SW9       29.74R
IRONWOOD       PTSUNNY   75  52  43 NW12      29.73S
$$

ABBREVIATIONS USED IN REMARKS
   TC - TEMPERATURE IN CELSIUS
  WCI - WIND CHILL INDEX
   HX - HEAT INDEX
  VSB - VISIBILITY



USA.gov is the U.S. government's official web portal to all federal, state and local government web resources and services.